Location: 32930 Toén, Ourense, España
(42.3348°N, 7.8903°W)
Time: 21:11:15
(UTC+01:00)

ISS - Visible Passes

Search period start: 14 December 2018 00:00
Search period end: 24 December 2018 00:00
Orbit: 401 x 408 km, 51.6° (Epoch: 15 December)

Date Brightness Start Highest point End Pass type
(mag) Time Alt. Az. Time Alt. Az. Time Alt. Az.
14 Dec -2.1 18:48:19 10° WNW 18:51:21 36° SW 18:54:22 10° SSE visible
16 Dec -0.5 18:41:13 10° W 18:43:15 16° SW 18:45:18 10° S visible
23 Dec -1.0 07:44:13 10° S 07:46:47 21° SE 07:49:21 10° E visible
